Location: Elsenham
(51.9167°N, 0.2333°E)
Time: 02:34:12
(UTC+00:00)

Daily predictions for brighter satellites

Satellite Brightness Start Highest point End
(mag) Time Altitude Azimuth Time Altitude Azimuth Time Altitude Azimuth
Meteor 1-24 Rocket 3.8 00:02:19 20° SSW 00:06:26 76° WNW 00:12:06 10° N
USA 234 3.9 00:00:11 10° ENE 00:06:36 59° N 00:13:00 10° W
Cosmos 2227 Rocket 2.8 00:05:20 22° S 00:08:40 44° ESE 00:14:02 10° NE
Cosmos 304 Rocket 3.8 00:06:24 21° SSW 00:09:38 82° WNW 00:14:25 10° NNE
Cosmos 1892 2.5 00:09:05 30° S 00:10:38 66° E 00:14:08 10° NNE
Cosmos 332 Rocket 4.2 00:09:47 24° S 00:12:33 53° ESE 00:17:19 10° NNE
Cosmos 2181 Rocket 4.1 00:06:35 10° NNW 00:12:45 67° W 00:16:56 21° S
Cosmos 1980 4.1 00:07:50 10° NW 00:13:17 49° WSW 00:16:41 22° S
CENTAUR R/B 3.3 00:12:18 21° SSE 00:15:33 36° ESE 00:21:46 10° NE
GEOS 3 Rocket 4.0 00:14:00 10° NE 00:19:01 48° SE 00:22:03 22° S
H-2A R/B 2.0 00:17:17 10° NNE 00:21:36 89° W 00:24:02 25° SSW
Cosmos 1538 Rocket 4.1 00:17:34 10° NNW 00:22:47 75° ENE 00:27:12 15° SSE
Cosmos 1503 Rocket 4.2 00:19:44 18° SSW 00:23:42 75° WNW 00:29:01 10° NNE
Cosmos 1777 Rocket 4.0 00:21:13 20° SSW 00:24:56 84° WNW 00:30:15 10° NNE
SL-4 R/B 2.8 00:21:25 10° W 00:25:04 31° SSW 00:26:24 26° S
Cosmos 2151 Rocket 4.0 00:22:32 10° NNW 00:26:47 48° W 00:29:10 23° SSW
Cosmos 1174 4.4 00:23:27 10° NW 00:28:19 47° WSW 00:30:27 25° S
NOSS 8 (A) 4.3 00:25:38 10° NW 00:28:32 56° SW 00:30:08 27° SSE
Cosmos 2297 Rocket 2.2 00:24:22 18° SW 00:28:44 82° WNW 00:34:26 10° NNE
Cosmos 2074 Rocket 4.0 00:24:31 21° S 00:28:52 86° E 00:35:08 10° N
Cosmos 2219 4.0 00:27:36 19° SSE 00:31:01 37° ESE 00:36:09 10° NE
Cosmos 2084 Rocket 3.5 00:29:51 24° SSW 00:32:13 59° SE 00:36:17 10° NE
ALOS 2 4.4 00:30:59 14° SW 00:33:16 19° W 00:36:29 10° NW
Okean 2 Rocket 3.7 00:29:17 10° NNW 00:33:34 46° W 00:36:03 23° SSW
Cosmos 1455 Rocket 3.5 00:29:52 10° N 00:34:17 57° ENE 00:37:36 17° SSE
ATLAS CENTAUR R/B 4.1 00:36:54 10° NW 00:39:01 15° NNW 00:41:12 10° NNE
Aureole 1 Rocket 4.1 00:38:34 19° SSE 00:40:28 30° E 00:44:18 10° NE
Cosmos 1825 2.3 00:42:47 25° SW 00:44:30 53° WNW 00:47:53 10° N
Cosmos 1674 Rocket 4.0 00:41:51 21° SW 00:44:36 53° WNW 00:48:52 10° N
NOSS 3 (A) 4.5 00:45:12 35° NE 00:45:12 35° NE 00:46:18 10° NE
Cosmos 1378 Rocket 4.3 00:43:13 19° SW 00:46:03 44° WNW 00:50:17 10° N
Cosmos 923 Rocket 4.5 00:45:35 10° NNW 00:50:50 61° ENE 00:56:01 10° SE
Cosmos 1025 Rocket 3.0 00:50:34 23° S 00:53:15 85° E 00:57:35 10° NNE
Cosmos 2221 Rocket 4.2 00:51:16 19° SW 00:54:11 48° WNW 00:58:30 10° N
BREEZE-M DEB (TANK) 2.9 00:51:00 10° W 00:57:07 38° SSW 00:58:59 18° SSE
Resurs 1-4 Rocket 3.9 00:54:07 10° NE 00:58:09 22° E 01:02:11 10° SE
NOSS 3-2 (A) 3.8 00:56:57 20° S 01:00:18 43° ESE 01:06:06 10° NE
Cosmos 1606 3.6 00:57:31 10° N 01:00:56 40° ENE 01:04:04 12° SE
Nadezhda 3 Rocket 4.2 00:55:24 10° NNW 01:01:36 62° W 01:06:12 18° S
Cosmos 2263 Rocket 2.8 00:58:49 18° S 01:02:39 45° ESE 01:07:56 10° NE
CZ-4C R/B 2.6 00:58:22 10° WSW 01:03:07 58° NW 01:09:13 10° NE
Cosmos 1898 Rocket 4.1 01:01:19 18° S 01:04:55 45° ESE 01:09:50 10° NE
COSMOS 2455 3.7 00:59:42 10° WSW 01:05:30 47° NW 01:11:21 10° NNE
Orbus 7S? 2.7 01:03:10 10° WNW 01:05:50 81° NNE 01:09:17 10° ESE
MOZ.5/SAFIR/RUBIN 5/SL-8 4.0 01:05:48 12° SSE 01:10:07 71° ENE 01:14:45 10° N
BlueWalker 3 2.0 01:09:18 10° W 01:13:04 77° N 01:16:49 10° ENE
Helios 1A Rocket 2.7 01:12:04 20° S 01:14:36 70° WSW 01:18:25 10° NNW
Cosmos 1461 4.3 01:14:31 16° SSE 01:16:40 24° ESE 01:19:51 10° ENE
Cosmos 2366 rocket 4.5 01:11:40 13° SSE 01:17:12 56° E 01:23:16 10° NNE
BREEZE-M DEB (TANK) 2.9 01:22:01 10° W 01:25:56 10° SE 01:25:58 10° SE
Cosmos 1680 Rocket 3.5 01:27:58 10° NNW 01:33:12 87° WSW 01:38:25 10° SSE
SL-19 R/B 3.8 01:30:17 10° NNE 01:33:22 63° WNW 01:35:06 22° SSW
Cosmos 1818 3.6 01:28:44 10° NW 01:34:13 69° SW 01:39:37 10° SSE
In-Cosmos 22 Rocket 4.3 01:29:58 16° SSW 01:34:38 85° WNW 01:40:32 10° NNE
Cosmos 2112 Rocket 4.0 01:30:07 10° NNW 01:35:21 84° ENE 01:40:32 10° SSE
SL-16 R/B 2.8 01:31:37 10° NW 01:36:52 38° WSW 01:41:09 15° S
SL-16 R/B 3.7 01:34:07 10° SE 01:40:01 45° ENE 01:45:54 10° N
Cosmos 1603 4.2 01:36:04 10° NNW 01:41:49 64° NE 01:47:31 10° SE
Cosmos 2237 Rocket 4.2 01:41:22 10° WNW 01:43:13 12° W 01:45:04 10° WSW
Cosmos 1869 3.1 01:40:04 10° NNW 01:43:45 65° W 01:46:40 15° S
Cosmos 1544 Rocket 3.6 01:41:27 10° NNW 01:45:54 75° W 01:49:57 12° S
Cosmos 292 Rocket 3.9 01:43:03 16° SW 01:46:54 70° WNW 01:51:44 10° NNE
SL-8 Rocket 4.0 01:43:18 14° SSW 01:48:41 83° W 01:54:56 10° N
USA 234 3.8 01:42:48 10° E 01:49:15 65° NNE 01:55:44 10° WNW
Cosmos 2082 3.7 01:45:35 15° SSW 01:50:20 90° ESE 01:56:00 10° NNE
IDEFIX/ARIANE 42P 2.8 01:45:07 10° NNE 01:50:23 69° ESE 01:55:13 12° S
Cosmos 2228 3.0 01:47:07 10° NNW 01:51:28 86° W 01:55:46 10° S
Cosmos 1943 3.1 01:46:26 10° NNW 01:52:05 79° WSW 01:57:41 10° SSE
Cosmos 2227 Rocket 3.1 01:47:25 10° WSW 01:52:47 42° NW 01:58:11 10° NNE
CZ-2C R/B 3.8 01:50:01 10° NNE 01:55:22 49° E 02:00:23 10° S
H-2A R/B 4.4 01:54:19 10° NNW 01:56:38 14° NW 01:58:55 10° W
GEOS 3 Rocket 4.4 01:52:04 10° NE 01:57:05 50° NW 02:02:00 10° WSW
Cosmos 1437 Rocket 3.9 01:53:51 10° SSE 01:57:22 36° E 02:00:52 10° NNE
CZ-2C R/B 2.6 01:52:15 10° SSE 01:57:32 85° WSW 02:02:59 10° NNW
CZ-2D R/B 2.6 01:53:07 10° NNE 01:58:26 58° ESE 02:03:38 10° S
Cosmos 1975 Rocket 3.8 01:58:43 14° SW 02:02:11 40° WNW 02:06:22 10° N
Meteor 1-11 4.5 01:57:52 13° SSW 02:02:59 66° WNW 02:08:48 10° N
Cosmos 1727 Rocket 4.1 01:56:58 10° N 02:03:20 85° ENE 02:09:43 10° S
COBE Rocket 4.2 01:59:47 10° N 02:04:55 68° WNW 02:09:38 12° SSW
CENTAUR R/B 2.9 01:59:44 10° WSW 02:05:43 67° NW 02:13:14 10° NE
H-2A R/B 3.4 02:04:18 10° NNE 02:08:19 86° ESE 02:12:02 12° SSW
USA 238 DEB 4.4 02:06:40 10° S 02:12:23 39° ESE 02:18:34 10° NE
USA 238 4.5 02:06:44 10° S 02:12:26 39° ESE 02:18:36 10° NE
Cosmos 2297 Rocket 4.1 02:09:12 10° W 02:13:39 23° NW 02:18:08 10° NNE
NPP 3.7 02:09:30 10° NNE 02:14:56 82° WNW 02:20:16 10° SSW
Cosmos 2219 3.9 02:09:38 10° SW 02:15:04 48° NW 02:20:31 10° NNE
ATLAS CENTAUR R/B 4.4 02:16:23 10° NNW 02:18:08 13° N 02:19:54 10° NE
Cosmos 2341 Rocket 4.4 02:13:09 11° SSW 02:18:52 50° WNW 02:24:56 10° N
Cosmos 1606 Rocket 3.8 02:16:59 10° N 02:21:27 75° ENE 02:25:53 10° SSE
ASTEX 1 3.8 02:16:57 10° SSE 02:21:46 66° E 02:26:37 10° N
Aureole 1 Rocket 4.3 02:20:10 10° WSW 02:23:35 31° NW 02:27:47 10° NNE
Cosmos 921 Rocket 3.0 02:19:26 10° NNW 02:23:42 89° NE 02:27:54 10° SSE
Cosmos 1867 4.5 02:18:56 10° S 02:24:00 41° ESE 02:29:07 10° NE
Cosmos 2227 4.4 02:18:50 10° SSW 02:24:31 70° ESE 02:30:17 10° NE
ADEOS II 2.4 02:20:22 10° NNE 02:25:37 67° ESE 02:30:50 10° S
Cosmos 494 Rocket 4.0 02:21:51 10° NNW 02:27:06 79° WSW 02:32:20 10° SSE
Cosmos 372 Rocket 4.5 02:22:28 10° SW 02:27:33 52° WNW 02:32:40 10° NNE
Cosmos 1536 Rocket 3.7 02:27:14 10° SSW 02:31:39 67° WNW 02:36:05 10° N
Cosmos 1606 4.3 02:32:53 10° NW 02:35:20 18° W 02:37:47 10° SW
Cosmos 1726 Rocket 3.7 02:32:35 10° N 02:37:05 80° E 02:41:29 10° SSE
Resurs 1-4 Rocket 2.2 02:33:11 10° NNE 02:38:26 68° WNW 02:43:41 10° SSW
Cosmos 724 4.3 02:36:22 10° NW 02:42:12 89° SW 02:48:03 10° SE
Cosmos 1937 Rocket 4.2 02:38:37 10° SW 02:43:41 46° WNW 02:48:45 10° NNE
Iridium 4 Rocket 4.2 02:41:35 10° N 02:45:49 48° E 02:50:21 10° SSE
Cosmos 2263 Rocket 3.1 02:41:24 10° WSW 02:46:39 40° NW 02:51:55 10° NNE
NOSS 3-2 (A) 4.0 02:45:33 10° WSW 02:50:57 54° NNW 02:57:31 10° NE
BlueWalker 3 2.0 02:47:38 10° WNW 02:51:22 81° N 02:55:08 10° E
Cosmos 1812 2.8 02:48:35 10° N 02:52:11 74° ENE 02:55:45 10° SSE
CZ-4C R/B 4.2 02:47:58 10° WNW 02:52:46 30° N 02:58:42 10° NE
Cosmos 1821 Rocket 4.2 02:46:51 10° SSW 02:52:50 58° WNW 02:58:55 10° N
Cosmos 1461 3.3 02:50:44 10° WSW 02:54:36 52° NW 02:58:23 10° NE
USA 267 3.9 02:48:23 10° ENE 02:54:36 44° SE 03:00:47 10° SSW
Cosmos 2058 4.0 02:51:40 10° SSE 02:55:30 43° E 02:59:23 10° NNE
NOSS 3-2 (C) 3.4 02:51:11 10° SW 02:56:36 81° NW 03:03:11 10° NE
BREEZE M DEB (TANK) 4.4 02:41:46 10° W 02:57:06 70° SSW 03:01:19 10° ESE
